Location: Kermapucano
(48.0667°N, 3.3000°W)
Time: 18:49:35
(UTC+00:00)

USA 307 - Pass Details

Date: 29 November 2020
Orbit: 563 x 583 km, 54.0° (Epoch: 22 January)

Event Time Altitude Azimuth Distance (km) Brightness Sun altitude
Exits shadow 05:07:17 36° 16° (NNE) 942 4.0 -24.8°
Drops below altitude 10° 05:10:49 10° 67° (ENE) 1,906 6.4 -24.2°
Sets 05:13:13 0° 76° (ENE) 2,807 7.6 -23.8°
